TimeEAT,TemperatureF,Dew PointF,Humidity,Sea Level PressureIn,VisibilityMPH,Wind Direction,Wind SpeedMPH,Gust SpeedMPH,PrecipitationIn,Events,Conditions,WindDirDegrees,DateUTC
12:00 AM,75.2,69.8,83,30.04,6.2,South,6.9,-,N/A,,Partly Cloudy,170,2013-08-26 21:00:00
3:00 AM,70,67,89,30.00,19,SSW,6.9,,,,Scattered Clouds,210,2013-08-27 00:00:00
4:00 AM,69.8,68.0,94,30.01,6.2,SSW,9.2,-,N/A,,Partly Cloudy,200,2013-08-27 01:00:00
5:00 AM,69.8,68.0,94,30.01,6.2,SSW,6.9,-,N/A,,Partly Cloudy,210,2013-08-27 02:00:00
6:00 AM,69.8,68.0,94,30.04,6.2,SW,6.9,-,N/A,,Partly Cloudy,230,2013-08-27 03:00:00
7:00 AM,69.8,68.0,94,30.04,6.2,South,6.9,-,N/A,,Partly Cloudy,190,2013-08-27 04:00:00
8:00 AM,73.4,69.8,88,30.06,6.2,South,9.2,-,N/A,,Partly Cloudy,180,2013-08-27 05:00:00
9:00 AM,77,70,74,30.09,19,South,13.8,,,,Scattered Clouds,190,2013-08-27 06:00:00
9:00 AM,77.0,69.8,78,30.09,6.2,South,13.8,-,N/A,,Partly Cloudy,190,2013-08-27 06:00:00
10:00 AM,80.6,66.2,61,30.09,6.2,South,11.5,-,N/A,,Partly Cloudy,190,2013-08-27 07:00:00
11:00 AM,80.6,68.0,65,30.06,6.2,South,11.5,-,N/A,,Partly Cloudy,180,2013-08-27 08:00:00
12:00 PM,82.4,68.0,62,30.04,6.2,SE,13.8,-,N/A,,Partly Cloudy,140,2013-08-27 09:00:00
1:00 PM,82.4,68.0,62,30.04,6.2,SSE,11.5,-,N/A,,Partly Cloudy,150,2013-08-27 10:00:00
2:00 PM,82.4,68.0,62,30.01,6.2,SSE,12.7,-,N/A,,Partly Cloudy,160,2013-08-27 11:00:00
3:00 PM,81,67,54,29.99,19,South,13.8,,,,Scattered Clouds,170,2013-08-27 12:00:00
3:00 PM,80.6,68.0,65,29.98,6.2,South,13.8,-,N/A,,Partly Cloudy,170,2013-08-27 12:00:00
4:00 PM,80.6,68.0,65,29.98,6.2,South,11.5,-,N/A,,Scattered Clouds,170,2013-08-27 13:00:00
5:00 PM,80.6,68.0,65,30.01,6.2,SE,17.3,-,N/A,,Scattered Clouds,130,2013-08-27 14:00:00
6:00 PM,78,69,67,30.01,19,SSE,9.2,,,,Scattered Clouds,160,2013-08-27 15:00:00
6:00 PM,77.0,69.8,78,30.01,6.2,SSE,9.2,-,N/A,,Partly Cloudy,160,2013-08-27 15:00:00
7:00 PM,77.0,69.8,78,30.01,6.2,South,4.6,-,N/A,,Partly Cloudy,180,2013-08-27 16:00:00
8:00 PM,75.2,69.8,83,30.04,6.2,South,10.4,-,N/A,,Partly Cloudy,170,2013-08-27 17:00:00
9:00 PM,76,68,69,30.04,19,South,17.9,,,,Scattered Clouds,170,2013-08-27 18:00:00
9:00 PM,75.2,68.0,78,30.04,6.2,South,9.2,-,N/A,,Partly Cloudy,170,2013-08-27 18:00:00
10:00 PM,75.2,68.0,78,30.06,6.2,South,10.4,-,N/A,,Partly Cloudy,190,2013-08-27 19:00:00